TimeMST,TemperatureF,Dew PointF,Humidity,Sea Level PressureIn,VisibilityMPH,Wind Direction,Wind SpeedMPH,Gust SpeedMPH,PrecipitationIn,Events,Conditions,WindDirDegrees,DateUTC
12:53 AM,12.9,8.1,81,30.00,10.0,West,3.5,-,N/A,,Clear,270,2013-01-24 07:53:00
1:53 AM,12.9,8.1,81,29.97,10.0,Calm,Calm,-,N/A,,Partly Cloudy,0,2013-01-24 08:53:00
2:53 AM,12.9,8.1,81,29.97,10.0,Calm,Calm,-,N/A,,Clear,0,2013-01-24 09:53:00
3:53 AM,12.9,9.0,84,29.95,10.0,Calm,Calm,-,N/A,,Clear,0,2013-01-24 10:53:00
4:53 AM,12.9,9.0,84,29.94,10.0,West,4.6,-,N/A,,Clear,270,2013-01-24 11:53:00
5:53 AM,12.9,9.0,84,29.94,10.0,WSW,3.5,-,N/A,,Clear,250,2013-01-24 12:53:00
6:53 AM,10.9,7.0,84,29.95,10.0,South,4.6,-,N/A,,Clear,190,2013-01-24 13:53:00
7:53 AM,12.9,8.1,81,29.96,10.0,WNW,9.2,-,N/A,,Clear,300,2013-01-24 14:53:00
8:53 AM,16.0,10.0,77,29.97,10.0,West,9.2,-,N/A,,Clear,270,2013-01-24 15:53:00
9:53 AM,21.0,14.0,74,30.02,10.0,WSW,12.7,-,N/A,,Clear,240,2013-01-24 16:53:00
10:53 AM,26.1,18.0,71,30.06,10.0,West,11.5,-,N/A,,Partly Cloudy,260,2013-01-24 17:53:00
11:53 AM,26.1,19.0,75,30.07,10.0,SW,6.9,-,N/A,,Overcast,230,2013-01-24 18:53:00
12:53 PM,34.0,24.1,67,30.06,10.0,West,10.4,-,N/A,,Overcast,270,2013-01-24 19:53:00
1:53 PM,37.0,25.0,62,30.06,10.0,WNW,11.5,-,N/A,,Clear,290,2013-01-24 20:53:00
2:53 PM,35.1,25.0,67,30.09,10.0,WNW,8.1,-,N/A,,Clear,290,2013-01-24 21:53:00
3:53 PM,34.0,25.0,70,30.11,10.0,SW,3.5,-,N/A,,Clear,220,2013-01-24 22:53:00
4:53 PM,34.0,25.0,70,30.12,10.0,West,4.6,-,N/A,,Clear,280,2013-01-24 23:53:00
5:53 PM,28.0,21.0,75,30.14,10.0,SW,8.1,-,N/A,,Clear,230,2013-01-25 00:53:00
6:53 PM,23.0,19.0,85,30.16,10.0,Calm,Calm,-,N/A,,Clear,0,2013-01-25 01:53:00
7:53 PM,21.0,17.1,85,30.16,10.0,WSW,3.5,-,N/A,,Clear,250,2013-01-25 02:53:00
8:53 PM,16.0,12.9,88,30.16,10.0,WNW,5.8,-,N/A,,Clear,300,2013-01-25 03:53:00
9:53 PM,19.9,16.0,85,30.13,10.0,SW,11.5,-,N/A,,Clear,220,2013-01-25 04:53:00
10:53 PM,18.0,14.0,84,30.13,10.0,West,5.8,-,N/A,,Clear,260,2013-01-25 05:53:00
11:53 PM,18.0,14.0,84,30.13,10.0,Calm,Calm,-,N/A,,Clear,0,2013-01-25 06:53:00